Location: *
(50.1323°S, 177.8370°W)
Time: 13:20:34
(UTC+00:00)

Daily predictions for brighter satellites

Satellite Brightness Start Highest point End
(mag) Time Altitude Azimuth Time Altitude Azimuth Time Altitude Azimuth
Cosmos 2242 Rocket 4.1 12:00:37 10° SSW 12:05:03 49° W 12:06:37 34° NW
Cosmos 1400 Rocket 3.2 12:02:34 10° S 12:06:40 59° ESE 12:08:17 33° NE
GP-B 3.1 12:03:35 10° S 12:08:07 76° W 12:09:46 38° NNW
Cosmos 1408 4.0 12:12:10 10° S 12:15:07 28° ESE 12:16:33 20° ENE
Iridium 2 4.2 12:12:13 10° SSW 12:15:23 37° W 12:15:50 35° WNW
Meteor 2-5 Rocket 3.8 12:10:49 10° SSW 12:16:43 85° ESE 12:19:55 28° NNE
SAR-Lupe-4 3.7 12:16:32 39° NE 12:17:44 70° ESE 12:21:23 10° S
Cosmos 2181 Rocket 4.5 12:21:56 25° NW 12:25:44 56° WSW 12:32:06 10° S
SL-24 DEB 4.2 12:23:18 10° S 12:28:05 84° W 12:30:08 34° NNW
Cosmos 1867 3.9 12:25:27 10° SW 12:30:52 66° SE 12:36:14 10° NE
Cosmos 1697 Rocket 3.0 12:26:43 10° SW 12:32:15 51° WNW 12:34:48 30° N
SAR-Lupe-1 4.0 12:31:33 43° N 12:32:41 82° WNW 12:36:24 10° SSW
SL-08 R/B 4.5 12:28:24 10° SSW 12:34:39 76° W 12:38:13 27° N
Cosmos 1378 Rocket 3.5 12:31:51 10° SSW 12:36:15 76° W 12:38:03 35° N
Cosmos 1908 Rocket 4.3 12:35:50 26° NNE 12:38:00 47° E 12:42:21 10° SSE
Genesis I 4.2 12:34:44 10° SSW 12:38:21 44° SE 12:41:55 10° ENE
NOSS 3-1 (A) 4.0 12:32:07 10° SW 12:39:04 61° SE 12:44:38 10° ENE
Cosmos 2208 Rocket 4.2 12:33:50 10° SSW 12:39:08 60° WNW 12:41:48 29° N
NOSS 3-1 (C) 3.3 12:33:52 10° SW 12:40:42 85° NW 12:46:03 11° NE
Cosmos 1703 3.2 12:37:01 10° S 12:40:56 84° E 12:42:28 35° NNE
Cosmos 1733 Rocket 3.3 12:39:19 33° NW 12:41:09 60° WSW 12:45:32 10° S
H-2A R/B 4.5 12:40:24 27° NW 12:41:27 31° W 12:45:15 10° SSW
ADEOS II 2.4 12:39:42 17° NNE 12:43:44 66° ESE 12:49:02 10° S
Cosmos 2221 Rocket 3.7 12:39:28 10° SSW 12:44:05 69° W 12:46:05 33° N
Cosmos 1633 3.7 12:41:19 10° S 12:44:08 31° ESE 12:45:38 20° ENE
Cosmos 2098 Rocket 3.1 12:43:49 31° NE 12:44:33 37° E 12:47:26 10° SSE
Cosmos 1908 3.6 12:43:57 35° NW 12:45:11 51° WSW 12:48:56 10° S
USA 215 3.9 12:42:47 26° N 12:45:22 34° NW 12:51:18 10° WSW
Meteor 1-22 Rocket 4.2 12:43:17 29° NNW 12:46:03 71° WSW 12:51:27 10° S
Meteor 1-15 Rocket 4.5 12:44:42 27° NNW 12:47:56 64° WSW 12:53:41 10° S
Cosmos 1470 4.2 12:46:51 21° WNW 12:48:25 28° WSW 12:51:52 10° S
SL-16 R/B 3.5 12:46:46 10° SSW 12:52:10 40° SE 12:57:32 10° ENE
Cosmos 1900 4.3 12:48:40 10° SW 12:53:30 60° WNW 12:56:20 24° NNE
Resurs 1-4 Rocket 2.1 12:51:34 26° N 12:54:33 68° WNW 12:59:54 10° SSW
COSMOS 2406 3.5 12:53:14 26° N 12:56:27 60° ENE 13:02:10 10° SE
Lacrosse 5 rocket 1.6 12:53:23 10° SW 12:57:00 58° SSE 13:00:40 10° ENE
ATLAS CENTAUR R/B 2.4 12:52:55 10° SW 12:57:20 52° SE 13:01:40 10° ENE
IDEFIX/ARIANE 42P 2.7 12:56:11 26° N 12:59:07 64° WNW 13:04:27 10° SSW
USA 81 4.4 12:56:53 26° NW 12:59:42 55° W 13:04:57 10° S
Cosmos 1980 Rocket 2.3 12:55:28 10° SW 13:01:06 60° WNW 13:04:48 22° N
Cosmos 2369 3.7 12:55:29 10° SSW 13:01:11 70° WNW 13:05:23 19° NNE
Cosmos 1892 3.8 12:58:27 10° S 13:01:57 39° ESE 13:04:43 15° NE
CZ-2D R/B 2.3 13:01:05 25° N 13:04:16 60° WNW 13:09:48 10° SSW
ALOS 3.4 13:02:16 10° NE 13:06:41 42° ESE 13:11:07 10° S
Cosmos 1356 Rocket 4.3 13:08:02 10° SSW 13:11:56 35° W 13:13:29 26° NW
Cosmos 773 Rocket 4.0 13:06:46 10° SSW 13:12:08 76° WNW 13:16:19 17° NNE
BREEZE-M DEB (TANK) 2.6 13:06:46 10° W 13:12:32 83° N 13:15:06 10° E
Cosmos 1825 3.2 13:11:44 10° S 13:15:11 40° ESE 13:18:15 12° NE
Cosmos 1300 Rocket 4.4 13:12:28 18° NNE 13:15:32 45° E 13:19:52 10° SSE
Lacrosse 4 Rocket 4.3 13:16:51 10° SW 13:17:45 11° SSW 13:18:39 10° SSW
ALOS 2 3.8 13:14:09 10° S 13:18:10 33° WSW 13:20:42 18° WNW
Cosmos 1833 Rocket 3.8 13:15:24 13° WNW 13:19:58 38° SW 13:25:16 10° SSE
ATLAS 3B R/B 2.5 13:15:43 10° SW 13:22:00 65° NW 13:28:14 10° NNE
Cosmos 1340 2.8 13:21:18 30° NW 13:22:49 57° WSW 13:26:25 10° S
Cosmos 1300 2.8 13:21:54 30° NNW 13:23:34 60° WSW 13:27:18 10° S
Cosmos 1025 Rocket 3.0 13:20:37 10° SSW 13:25:06 76° W 13:28:00 21° N
FENGYUN 3A 3.7 13:20:37 14° NNE 13:25:23 89° WNW 13:30:53 10° SSW
USA 308 1.3 13:25:27 61° N 13:25:39 66° NNE 13:28:19 10° ESE
Cosmos 1758 4.3 13:25:43 22° WNW 13:27:40 35° WSW 13:31:26 10° S
Cosmos 1455 3.5 13:26:21 14° NNE 13:29:04 34° E 13:32:28 10° SSE
Cosmos 1934 Rocket 4.3 13:23:09 10° SSW 13:29:23 53° W 13:33:42 20° NNW
SJ 16-02 3.1 13:28:06 12° WNW 13:31:15 24° SW 13:34:53 10° S
Meteor 2-10 Rocket 3.9 13:27:53 22° NNW 13:31:41 65° WSW 13:37:34 10° S
Helios 1A Rocket 3.3 13:28:22 10° S 13:32:17 52° WSW 13:34:27 24° NW
Cosmos 1605 Rocket 3.9 13:26:57 10° SSW 13:33:08 76° W 13:38:18 15° N
USA 307 4.0 13:34:20 12° NE 13:34:20 12° NE 13:35:02 10° ENE
Cosmos 2278 3.7 13:31:55 10° SSW 13:37:41 79° WNW 13:43:24 10° NNE
AQUA 4.1 13:35:41 21° NNW 13:38:42 50° W 13:43:25 10° SSW
BREEZE M DEB (TANK) 1.5 13:38:00 28° WNW 13:38:57 77° N 13:41:39 10° E
Cosmos 371 Rocket 4.1 13:36:53 15° N 13:40:36 45° ENE 13:45:18 10° SE
Cosmos 2082 Rocket 2.4 13:37:14 19° NW 13:41:21 67° WSW 13:47:08 10° SSE
Cosmos 2237 4.3 13:39:49 10° SSW 13:45:38 85° ESE 13:51:24 10° NNE
Cosmos 1782 Rocket 3.7 13:45:23 20° NNW 13:48:24 67° WSW 13:52:58 10° S
Cosmos 1408 4.0 13:46:12 10° SW 13:48:40 19° W 13:49:33 18° WNW
Cosmos 2100 Rocket 4.4 13:46:08 10° S 13:52:20 63° ESE 13:58:29 10° NNE
ATLAS 2AS CENTAUR R/B 3.3 13:46:08 10° WNW 13:52:40 53° SW 13:59:36 10° SE
Cosmos 1153 Rocket 4.5 13:48:49 10° S 13:55:06 84° W 14:01:22 10° N
Cosmos 44 Rocket 3.2 13:52:48 19° NNW 13:56:08 72° NE 14:00:47 10° SE
Okean 2 Rocket 4.4 13:53:55 10° NNE 13:58:03 37° E 14:02:13 10° SSE
Cosmos 2360 Rocket 2.9 13:53:10 10° SSW 13:58:48 58° SE 14:04:24 10° NE
CZ-2C R/B 3.3 13:54:11 10° N 13:59:45 73° WNW 14:05:36 10° SSW
Cosmos 1953 2.7 13:57:22 19° NW 13:59:55 50° WSW 14:03:52 10° S
COBE Rocket 4.5 13:55:31 10° NNE 14:00:05 56° ESE 14:04:43 10° S
USA 306 2.8 14:00:04 21° NNW 14:02:05 47° NE 14:05:40 10° ESE
In-Cosmos 22 Rocket 4.4 13:57:24 10° SSW 14:03:22 84° ESE 14:09:11 10° NNE
Cosmos 1538 Rocket 4.1 13:58:04 10° SSW 14:03:34 90° ENE 14:08:59 10° NNE
ISS -2.4 14:03:50 18° NNW 14:05:37 28° NE 14:08:36 10° E
Cosmos 2219 Rocket 3.9 14:00:36 10° SSW 14:05:51 37° SE 14:11:03 10° ENE
Cosmos 1975 Rocket 3.5 14:01:58 10° SSW 14:06:11 45° W 14:09:36 15° NNW
Cosmos 1315 Rocket 3.8 14:04:44 10° SSW 14:08:19 31° W 14:10:49 16° NW
Cosmos 1328 4.5 14:08:40 10° SSW 14:12:20 37° W 14:15:12 15° NNW
MOZ.5/SAFIR/RUBIN 5/SL-8 4.1 14:08:52 10° SSE 14:13:37 68° ENE 14:18:17 10° N
Genesis I 4.2 14:11:51 10° WSW 14:14:55 24° WNW 14:17:20 13° NNW
Cosmos 2322 Rocket 2.2 14:09:14 10° SSW 14:14:57 88° WNW 14:20:36 10° NNE
Cosmos 1633 4.1 14:14:49 10° SW 14:16:38 15° W 14:17:41 13° WNW
Cosmos 1777 Rocket 4.4 14:13:10 14° NW 14:17:32 53° WSW 14:22:42 10° SSE
USA 229 DEB 3.5 14:10:41 10° SW 14:17:33 83° NW 14:23:45 10° NE
USA 229 3.5 14:10:45 10° SW 14:17:36 84° NW 14:23:49 10° NE
Cosmos 2333 Rocket 2.7 14:14:16 10° SSW 14:19:58 66° ESE 14:25:38 10° NE
Okean 1 Rocket 4.5 14:16:20 10° NNE 14:20:30 37° E 14:24:41 10° SSE
CZ-2C R/B 2.6 14:17:23 10° NNE 14:22:36 90° WSW 14:27:47 10° SSW
ADEOS II 3.5 14:20:36 13° NW 14:23:51 21° W 14:27:53 10° SW
Cosmos 1536 Rocket 3.7 14:20:29 10° S 14:25:04 83° E 14:29:36 10° NNE
Thor Agena Rocket 3.9 14:20:44 10° N 14:25:40 47° W 14:30:44 10° SSW
ATLAS 5 CENTAUR R/B 4.4 14:22:40 10° SW 14:28:27 31° SSE 14:33:17 10° E
SL-16 R/B 4.2 14:23:59 10° SE 14:29:23 30° E 14:34:42 10° NNE
NOSS 3-1 (A) 3.9 14:23:50 10° SW 14:29:31 34° WNW 14:34:17 10° N
ATLAS CENTAUR R/B 2.4 14:31:23 10° WSW 14:35:12 28° WNW 14:38:55 10° N
Resurs 1-4 Rocket 4.1 14:34:07 10° W 14:35:22 11° W 14:36:37 10° WSW
Lacrosse 5 rocket 1.9 14:32:10 10° WSW 14:35:23 29° NW 14:38:39 10° NNE
Cosmos 2151 Rocket 3.7 14:31:18 10° N 14:35:51 88° E 14:40:29 10° S
SL-16 R/B 2.6 14:30:57 10° SW 14:36:21 44° WNW 14:41:43 10° N
Cosmos 1892 4.3 14:34:08 10° SW 14:36:39 18° W 14:38:58 11° NW
Cosmos 1459 Rocket 4.1 14:32:13 10° SSW 14:38:40 71° W 14:45:02 10° N
BREEZE-M DEB (TANK) 2.6 14:38:14 10° W 14:39:59 22° NNW 14:42:17 10° NNE
COSMOS 2406 4.5 14:36:01 10° WNW 14:41:09 32° SW 14:46:20 10° SSE
DNEPR-1 R/B 3.5 14:38:45 11° NW 14:43:05 87° SW 14:47:13 10° SE
CZ-2C R/B 4.4 14:38:57 10° SSE 14:43:50 31° E 14:48:46 10° NNE
Cosmos 1980 Rocket 4.2 14:43:40 10° W 14:43:54 10° W 14:44:08 10° W
ALOS 3.3 14:40:03 10° NNW 14:44:04 28° W 14:48:08 10° SW
PAYLOAD A 3.9 14:41:45 10° N 14:46:29 61° WNW 14:51:13 10° SSW
USA 281 3.3 14:42:51 10° NNE 14:49:22 63° WNW 14:55:58 10° SSW
Cosmos 1825 3.9 14:47:12 10° SW 14:49:33 16° W 14:51:52 10° NW
METEOR-M 4.5 14:44:45 10° N 14:49:57 48° W 14:55:13 10° SSW
Meteor 1-4 Rocket 3.6 14:49:43 10° SW 14:52:25 24° W 14:55:05 10° NNW
Cosmos 1484 Rocket 3.5 14:49:08 10° NNE 14:52:47 54° ESE 14:56:27 10° S
Envisat 3.2 14:50:05 10° N 14:55:05 54° W 15:00:10 10° SSW
Cosmos 2333 4.2 14:52:08 10° SSW 14:57:49 82° WNW 15:03:28 10° NNE
Cosmos 923 Rocket 4.0 14:54:14 10° SSW 14:59:30 71° WNW 15:04:44 10° NNE
Cosmos 332 Rocket 3.9 14:55:21 10° NNW 15:00:15 89° SW 15:05:10 10° SSE
Fregat R/B Cluster 11 3.6 14:57:55 10° SW 15:02:17 88° WNW 15:05:06 10° NE
